GW2898 Weather Reports


Display with metric or nautical units.
time (UTC)temp
F
wind
direction
speed
MPH
gust
MPH
rain 1hr
in
rain 24hr
in
rain mn
in
humidity
%
barometer
mb
20260905145044 85 147 0.0 1.0 0.00 0.00 0.00 50 1017.4
20260905144539 85 193 0.0 3.0 0.00 0.00 0.00 50 1017.1
20260905144038 85 212 0.0 3.0 0.00 0.00 0.00 51 1017.3
20260905143537 86 218 0.0 3.0 0.00 0.00 0.00 50 1017.1
20260905143032 87 153 0.0 2.0 0.00 0.00 0.00 49 1017.0
20260905142531 85 135 0.0 2.0 0.00 0.00 0.00 51 1017.2
20260905142026 86 242 0.0 0.0 0.00 0.00 0.00 50 1017.0
20260905141521 85 229 0.0 2.0 0.00 0.00 0.00 51 1017.0
20260905141018 85 147 0.0 2.0 0.00 0.00 0.00 53 1017.0
20260905140513 83 217 0.0 2.0 0.00 0.00 0.00 57 1017.0
20260905140012 82 129 0.0 0.0 0.00 0.00 0.00 58 1017.0
20260905135507 82 75 0.0 0.0 0.00 0.00 0.00 60 1016.9
20260905135002 81 75 0.0 0.0 0.00 0.00 0.00 61 1016.5
20260905134501 80 95 0.0 1.0 0.00 0.00 0.00 61 1016.8
20260905134000 80 139 0.0 2.0 0.00 0.00 0.00 61 1016.6
20260905133455 80 147 1.0 2.0 0.00 0.00 0.00 62 1016.5
20260905132955 79 55 0.0 1.0 0.00 0.00 0.00 62 1016.6
20260905132450 78 32 0.0 1.0 0.00 0.00 0.00 64 1016.4
20260905131945 78 55 0.0 0.0 0.00 0.00 0.00 64 1016.5
20260905131442 77 42 1.0 2.0 0.00 0.00 0.00 64 1016.4
20260905130942 77 333 0.0 2.0 0.00 0.00 0.00 64 1016.4
20260905130435 77 128 1.0 2.0 0.00 0.00 0.00 65 1016.2
20260905125930 77 217 0.0 0.0 0.00 0.00 0.00 64 1016.2
20260905125425 77 60 0.0 0.0 0.00 0.00 0.00 65 1016.2
20260905124920 77 47 0.0 1.0 0.00 0.00 0.00 64 1016.1
20260905124417 77 50 0.0 1.0 0.00 0.00 0.00 63 1016.0
20260905123916 78 24 0.0 1.0 0.00 0.00 0.00 63 1016.1
20260905123413 78 38 1.0 2.0 0.00 0.00 0.00 62 1016.1
20260905122908 78 142 0.0 1.0 0.00 0.00 0.00 62 1015.8
20260905122408 78 37 0.0 2.0 0.00 0.00 0.00 62 1016.2
20260905121903 78 25 0.0 0.0 0.00 0.00 0.00 61 1016.0
20260905121359 78 131 0.0 0.0 0.00 0.00 0.00 60 1015.8
20260905120858 78 121 0.0 2.0 0.00 0.00 0.00 59 1015.6
20260905120357 78 154 0.0 1.0 0.00 0.00 0.00 58 1015.8
20260905115853 78 142 0.0 2.0 0.00 0.00 0.00 59 1015.8
20260905115352 79 44 0.0 0.0 0.00 0.00 0.00 57 1015.6
20260905114847 80 117 0.0 1.0 0.00 0.00 0.00 56 1015.6
20260905114346 80 64 0.0 2.0 0.00 0.00 0.00 55 1015.5
20260905113845 81 64 1.0 2.0 0.00 0.00 0.00 54 1015.1
20260905113341 81 37 1.0 1.0 0.00 0.00 0.00 53 1015.6
20260905112836 81 352 0.0 1.0 0.00 0.00 0.00 53 1015.6
20260905112332 81 51 1.0 3.0 0.00 0.00 0.00 53 1015.7
20260905111827 80 74 1.0 3.0 0.00 0.00 0.00 56 1015.5
20260905111327 80 75 1.0 2.0 0.00 0.00 0.00 57 1015.7
20260905110826 79 117 0.0 2.0 0.00 0.00 0.00 56 1015.5
20260905110320 79 117 0.0 0.0 0.00 0.00 0.00 57 1015.5
20260905105815 80 117 0.0 0.0 0.00 0.00 0.00 56 1015.3
20260905105314 81 103 0.0 1.0 0.00 0.00 0.00 55 1015.4
20260905104809 80 62 0.0 2.0 0.00 0.00 0.00 56 1015.4
20260905104306 80 32 0.0 2.0 0.00 0.00 0.00 58 1015.4
20260905103805 80 37 0.0 1.0 0.00 0.00 0.00 56 1015.5
20260905103300 80 101 1.0 2.0 0.00 0.00 0.00 57 1015.5
20260905102756 80 104 0.0 1.0 0.00 0.00 0.00 58 1015.1
20260905102253 80 99 1.0 2.0 0.00 0.00 0.00 57 1015.3
20260905101752 80 322 0.0 0.0 0.00 0.00 0.00 57 1015.1
20260905101251 80 322 0.0 2.0 0.00 0.00 0.00 57 1015.4
20260905100746 80 96 1.0 2.0 0.00 0.00 0.00 56 1015.4
20260905100241 81 89 0.0 2.0 0.00 0.00 0.00 56 1015.4
20260905095736 81 284 0.0 3.0 0.00 0.00 0.00 55 1015.1
20260905095235 80 126 1.0 2.0 0.00 0.00 0.00 55 1015.3
20260905094730 80 113 0.0 0.0 0.00 0.00 0.00 56 1015.3
20260905094225 81 107 0.0 1.0 0.00 0.00 0.00 55 1015.2
20260905093724 81 81 1.0 2.0 0.00 0.00 0.00 56 1015.2
20260905093220 80 131 1.0 3.0 0.00 0.00 0.00 57 1015.2
20260905092715 81 117 0.0 1.0 0.00 0.00 0.00 57 1015.2
20260905092211 81 89 0.0 2.0 0.00 0.00 0.00 55 1015.2
20260905091710 80 57 0.0 1.0 0.00 0.00 0.00 57 1015.3
20260905091206 81 104 1.0 2.0 0.00 0.00 0.00 57 1015.2
20260905090705 80 117 0.0 1.0 0.00 0.00 0.00 57 1015.1
20260905090201 80 25 0.0 1.0 0.00 0.00 0.00 57 1015.0
20260905085659 80 15 0.0 1.0 0.00 0.00 0.00 58 1015.1
20260905085155 80 113 0.0 1.0 0.00 0.00 0.00 57 1015.2
20260905084654 81 37 0.0 1.0 0.00 0.00 0.00 56 1015.0
20260905084149 80 66 0.0 1.0 0.00 0.00 0.00 56 1015.3
20260905083644 80 103 0.0 0.0 0.00 0.00 0.00 57 1015.4
20260905083140 80 81 0.0 1.0 0.00 0.00 0.00 57 1015.4
20260905082635 80 104 0.0 1.0 0.00 0.00 0.00 57 1015.2
20260905082126 80 104 0.0 0.0 0.00 0.00 0.00 56 1015.1
20260905081626 80 117 0.0 1.0 0.00 0.00 0.00 56 1015.1
20260905081125 80 110 0.0 1.0 0.00 0.00 0.00 57 1015.3
20260905080620 80 37 0.0 0.0 0.00 0.00 0.00 55 1015.0
20260905080115 81 117 0.0 0.0 0.00 0.00 0.00 55 1015.3
20260905075614 81 113 0.0 0.0 0.00 0.00 0.00 54 1015.3
20260905075113 81 113 0.0 1.0 0.00 0.00 0.00 55 1015.3
20260905074613 82 69 0.0 0.0 0.00 0.00 0.00 55 1015.0
20260905074109 82 69 0.0 1.0 0.00 0.00 0.00 54 1015.1
20260905073604 82 346 0.0 1.0 0.00 0.00 0.00 53 1015.1
20260905073059 82 89 0.0 0.0 0.00 0.00 0.00 52 1015.1
20260905072558 83 104 0.0 0.0 0.00 0.00 0.00 51 1015.3
20260905072054 83 104 0.0 1.0 0.00 0.00 0.00 50 1015.2
20260905071551 84 55 0.0 0.0 0.00 0.00 0.00 50 1015.0
20260905071046 83 62 0.0 1.0 0.00 0.00 0.00 50 1015.2
20260905070541 83 62 0.0 1.0 0.00 0.00 0.00 51 1015.0
20260905070037 83 37 0.0 1.0 0.00 0.00 0.00 52 1015.1
20260905065534 83 124 0.0 0.0 0.00 0.00 0.00 51 1015.1
20260905065030 84 135 0.0 1.0 0.00 0.00 0.00 51 1015.1
20260905064530 84 142 0.0 0.0 0.00 0.00 0.00 50 1015.2
20260905064025 84 75 0.0 0.0 0.00 0.00 0.00 47 1015.1
20260905063524 84 75 0.0 1.0 0.00 0.00 0.00 47 1015.0
20260905063021 84 104 0.0 1.0 0.00 0.00 0.00 45 1014.9
20260905062521 84 62 0.0 0.0 0.00 0.00 0.00 46 1015.0
20260905062021 85 62 0.0 0.0 0.00 0.00 0.00 46 1014.9
20260905061516 85 62 0.0 0.0 0.00 0.00 0.00 45 1015.0
20260905061015 85 62 0.0 0.0 0.00 0.00 0.00 44 1014.8
20260905060511 86 62 0.0 0.0 0.00 0.00 0.00 42 1014.7
20260905060007 87 62 0.0 0.0 0.00 0.00 0.00 41 1014.8
20260905055505 88 62 0.0 0.0 0.00 0.00 0.00 41 1014.5
20260905055000 89 205 0.0 0.0 0.00 0.00 0.00 42 1014.7
20260905054456 90 25 0.0 1.0 0.00 0.00 0.00 38 1014.7
20260905053951 91 269 0.0 2.0 0.00 0.00 0.00 37 1014.8
20260905053446 89 248 3.0 4.0 0.00 0.00 0.00 37 1014.7
20260905052942 88 338 0.0 1.0 0.00 0.00 0.00 41 1014.7
20260905052441 86 11 2.0 4.0 0.00 0.00 0.00 41 1014.8
20260905051940 86 75 0.0 0.0 0.00 0.00 0.00 43 1014.5
20260905051435 87 117 0.0 0.0 0.00 0.00 0.00 43 1014.7
20260905050933 87 117 0.0 1.0 0.00 0.00 0.00 42 1014.7
20260905050428 87 75 0.0 0.0 0.00 0.00 0.00 41 1014.7
20260905045924 88 75 0.0 0.0 0.00 0.00 0.00 40 1014.6
20260905045419 88 75 0.0 1.0 0.00 0.00 0.00 39 1014.5
20260905044915 89 230 0.0 0.0 0.00 0.00 0.00 39 1014.6
20260905044409 89 230 0.0 0.0 0.00 0.00 0.00 37 1014.5
20260905043908 90 230 0.0 0.0 0.00 0.00 0.00 36 1014.3
20260905043403 91 230 0.0 0.0 0.00 0.00 0.00 35 1014.4
20260905042903 92 230 0.0 0.0 0.00 0.00 0.00 34 1014.3
20260905042358 93 269 0.0 3.0 0.00 0.00 0.00 32 1014.4
20260905041852 94 283 0.0 3.0 0.00 0.00 0.00 31 1014.4
20260905041349 94 241 0.0 3.0 0.00 0.00 0.00 31 1014.2
20260905040843 95 247 1.0 2.0 0.00 0.00 0.00 31 1014.1
20260905040342 95 238 3.0 3.0 0.00 0.00 0.00 30 1014.3
20260905035842 95 235 3.0 3.0 0.00 0.00 0.00 30 1014.2
20260905035337 95 233 2.0 5.0 0.00 0.00 0.00 30 1014.2
20260905034834 95 256 1.0 3.0 0.00 0.00 0.00 29 1014.0
20260905034329 95 240 2.0 4.0 0.00 0.00 0.00 29 1014.0
20260905033828 96 245 4.0 7.0 0.00 0.00 0.00 29 1013.9
20260905033323 95 244 3.0 4.0 0.00 0.00 0.00 28 1013.9
20260905032822 96 235 4.0 6.0 0.00 0.00 0.00 28 1013.9
20260905032318 96 247 3.0 5.0 0.00 0.00 0.00 28 1013.5
20260905031813 96 250 3.0 6.0 0.00 0.00 0.00 27 1013.5
20260905031309 97 239 5.0 9.0 0.00 0.00 0.00 27 1013.6
20260905030804 97 230 2.0 4.0 0.00 0.00 0.00 28 1013.6
20260905030300 97 267 4.0 8.0 0.00 0.00 0.00 27 1013.7
20260905025759 97 238 4.0 7.0 0.00 0.00 0.00 26 1013.4
20260905025255 98 226 2.0 8.0 0.00 0.00 0.00 27 1013.1
20260905024750 97 250 5.0 6.0 0.00 0.00 0.00 27 1013.2
20260905024246 98 234 3.0 7.0 0.00 0.00 0.00 27 1013.2
20260905023747 98 263 2.0 5.0 0.00 0.00 0.00 27 1013.2
20260905023241 98 253 3.0 8.0 0.00 0.00 0.00 27 1013.0
20260905022735 98 244 2.0 9.0 0.00 0.00 0.00 28 1013.2
20260905022231 98 257 3.0 5.0 0.00 0.00 0.00 28 1012.6
20260905021730 98 258 5.0 5.0 0.00 0.00 0.00 27 1012.8
20260905021225 98 246 3.0 7.0 0.00 0.00 0.00 28 1012.8
20260905020720 98 254 4.0 7.0 0.00 0.00 0.00 28 1012.8
20260905020215 97 288 2.0 7.0 0.00 0.00 0.00 29 1012.6
20260905015714 96 201 5.0 6.0 0.00 0.00 0.00 32 1012.7
20260905015209 95 65 2.0 2.0 0.00 0.00 0.00 35 1012.7
20260905014708 95 217 0.0 1.0 0.00 0.00 0.00 34 1012.7
20260905014203 96 75 0.0 0.0 0.00 0.00 0.00 35 1012.5
20260905013659 97 75 0.0 0.0 0.00 0.00 0.00 33 1012.7
20260905013154 98 75 0.0 0.0 0.00 0.00 0.00 33 1012.6
20260905012649 99 302 0.0 0.0 0.00 0.00 0.00 30 1012.7
20260905012140 99 283 2.0 3.0 0.00 0.00 0.00 31 1012.6
20260905011636 100 3 0.0 2.0 0.00 0.00 0.00 30 1012.5
20260905011132 100 1 2.0 3.0 0.00 0.00 0.00 31 1012.4
20260905010626 100 358 1.0 2.0 0.00 0.00 0.00 31 1012.4
20260905010123 102 288 4.0 4.0 0.00 0.00 0.00 30 1012.5
20260905005618 102 339 0.0 2.0 0.00 0.00 0.00 29 1012.5
20260905005113 100 282 1.0 2.0 0.00 0.00 0.00 30 1012.5
20260905004608 99 242 0.0 1.0 0.00 0.00 0.00 32 1012.6
20260905004103 99 269 0.0 2.0 0.00 0.00 0.00 32 1012.6
20260905003559 99 260 0.0 2.0 0.00 0.00 0.00 31 1012.7
20260905003054 99 221 2.0 3.0 0.00 0.00 0.00 31 1012.8
20260905002549 100 297 2.0 3.0 0.00 0.00 0.00 30 1012.6
20260905002044 102 343 0.0 2.0 0.00 0.00 0.00 29 1012.6
20260905001539 102 1 0.0 4.0 0.00 0.00 0.00 28 1012.6
20260905001032 101 255 0.0 3.0 0.00 0.00 0.00 33 1012.8
20260905000528 100 290 1.0 2.0 0.00 0.00 0.00 31 1012.6
20260905000024 101 228 2.0 3.0 0.00 0.00 0.00 30 1012.7
20260904235519 103 253 4.0 5.0 0.00 0.00 0.00 28 1012.4
20260904235018 104 263 2.0 3.0 0.00 0.00 0.00 30 1012.7
20260904234518 102 94 1.0 3.0 0.00 0.00 0.00 30 1012.7
20260904234014 102 262 6.0 6.0 0.00 0.00 0.00 30 1012.8
20260904233509 101 255 0.0 5.0 0.00 0.00 0.00 29 1012.8
20260904233006 101 193 1.0 4.0 0.00 0.00 0.00 31 1012.6
20260904232502 103 224 1.0 3.0 0.00 0.00 0.00 32 1012.6
20260904231958 102 223 1.0 3.0 0.00 0.00 0.00 30 1013.1
20260904231453 102 89 0.0 3.0 0.00 0.00 0.00 32 1013.1
20260904230948 102 67 2.0 3.0 0.00 0.00 0.00 31 1012.8
20260904230447 102 63 1.0 4.0 0.00 0.00 0.00 34 1013.0
20260904225942 104 269 0.0 1.0 0.00 0.00 0.00 31 1013.0
20260904225440 100 229 0.0 2.0 0.00 0.00 0.00 35 1012.8
20260904224934 99 37 0.0 1.0 0.00 0.00 0.00 33 1012.8
20260904224430 99 128 0.0 4.0 0.00 0.00 0.00 32 1013.3
20260904223930 100 263 2.0 4.0 0.00 0.00 0.00 34 1013.3
20260904223429 99 279 4.0 5.0 0.00 0.00 0.00 33 1013.2
20260904222925 98 242 8.0 9.0 0.00 0.00 0.00 33 1013.4
20260904222420 104 246 3.0 5.0 0.00 0.00 0.00 31 1013.5
20260904221920 101 104 0.0 2.0 0.00 0.00 0.00 31 1013.7
20260904221415 100 159 3.0 4.0 0.00 0.00 0.00 32 1013.6
20260904220910 98 157 0.0 2.0 0.00 0.00 0.00 35 1013.6
20260904220409 98 211 2.0 5.0 0.00 0.00 0.00 34 1013.7
20260904215905 99 295 1.0 3.0 0.00 0.00 0.00 32 1013.8
20260904215400 100 35 2.0 4.0 0.00 0.00 0.00 35 1013.9
20260904214856 99 230 2.0 4.0 0.00 0.00 0.00 35 1014.0
20260904214351 99 179 1.0 7.0 0.00 0.00 0.00 35 1014.0
20260904213850 100 180 0.0 6.0 0.00 0.00 0.00 34 1014.0
20260904213345 100 176 2.0 11.0 0.00 0.00 0.00 34 1014.1
20260904212841 102 229 5.0 8.0 0.00 0.00 0.00 33 1013.9
20260904212335 101 180 3.0 7.0 0.00 0.00 0.00 33 1014.0
20260904211831 100 46 1.0 7.0 0.00 0.00 0.00 36 1014.4
20260904211325 100 186 0.0 3.0 0.00 0.00 0.00 38 1014.2
20260904210820 98 67 2.0 7.0 0.00 0.00 0.00 36 1014.4
20260904210319 100 56 4.0 6.0 0.00 0.00 0.00 35 1014.4
20260904205816 100 75 3.0 5.0 0.00 0.00 0.00 36 1014.6
20260904205311 99 263 1.0 5.0 0.00 0.00 0.00 36 1014.6
20260904204808 100 71 7.0 8.0 0.00 0.00 0.00 35 1014.5
20260904204304 99 226 0.0 3.0 0.00 0.00 0.00 35 1014.6
20260904203800 98 161 2.0 5.0 0.00 0.00 0.00 37 1014.8
20260904203256 99 93 5.0 7.0 0.00 0.00 0.00 36 1014.6
20260904202752 99 77 4.0 6.0 0.00 0.00 0.00 35 1014.8
20260904202248 99 116 2.0 7.0 0.00 0.00 0.00 38 1015.2
20260904201743 98 118 0.0 3.0 0.00 0.00 0.00 39 1015.0
20260904201237 97 65 3.0 6.0 0.00 0.00 0.00 38 1015.1
20260904200732 97 195 0.0 6.0 0.00 0.00 0.00 39 1015.4
20260904200226 96 321 5.0 8.0 0.00 0.00 0.00 39 1015.6
20260904195725 98 273 6.0 10.0 0.00 0.00 0.00 37 1015.4
20260904195224 97 236 1.0 5.0 0.00 0.00 0.00 39 1015.6
20260904194720 97 180 3.0 7.0 0.00 0.00 0.00 38 1015.6
20260904194218 97 219 7.0 9.0 0.00 0.00 0.00 39 1015.6
20260904193714 96 265 4.0 7.0 0.00 0.00 0.00 40 1015.6
20260904193205 97 180 3.0 7.0 0.00 0.00 0.00 41 1015.6
20260904192705 97 172 3.0 6.0 0.00 0.00 0.00 40 1015.7
20260904192200 96 178 2.0 7.0 0.00 0.00 0.00 41 1016.0
20260904191656 98 190 3.0 9.0 0.00 0.00 0.00 40 1016.1
20260904191147 96 186 3.0 7.0 0.00 0.00 0.00 43 1016.1
20260904190643 97 187 5.0 6.0 0.00 0.00 0.00 42 1016.2
20260904190139 96 83 2.0 8.0 0.00 0.00 0.00 43 1016.3
20260904185635 95 246 3.0 9.0 0.00 0.00 0.00 44 1016.5
20260904185129 96 225 3.0 6.0 0.00 0.00 0.00 44 1016.5
20260904184628 96 187 3.0 5.0 0.00 0.00 0.00 45 1016.6
20260904184124 96 333 4.0 5.0 0.00 0.00 0.00 41 1016.6
20260904183619 96 209 4.0 8.0 0.00 0.00 0.00 42 1016.8
20260904183114 94 224 0.0 9.0 0.00 0.00 0.00 43 1016.7
20260904182609 94 170 3.0 7.0 0.00 0.00 0.00 43 1016.8
20260904182104 94 204 2.0 8.0 0.00 0.00 0.00 46 1017.1
20260904181601 94 255 3.0 6.0 0.00 0.00 0.00 45 1017.0
20260904181100 94 215 3.0 9.0 0.00 0.00 0.00 46 1017.2
20260904180555 94 247 1.0 11.0 0.00 0.00 0.00 43 1017.2
20260904180050 95 173 3.0 5.0 0.00 0.00 0.00 46 1017.2
20260904175549 94 277 2.0 7.0 0.00 0.00 0.00 45 1017.3
20260904175048 93 232 5.0 8.0 0.00 0.00 0.00 47 1017.3
20260904174543 94 171 5.0 9.0 0.00 0.00 0.00 48 1017.3
20260904174040 93 227 2.0 5.0 0.00 0.00 0.00 51 1017.1
20260904173539 93 174 3.0 10.0 0.00 0.00 0.00 49 1017.3
20260904173035 93 168 4.0 6.0 0.00 0.00 0.00 49 1017.2
20260904172531 92 206 3.0 8.0 0.00 0.00 0.00 52 1017.3
20260904172030 93 184 2.0 6.0 0.00 0.00 0.00 51 1017.2
20260904171526 93 189 5.0 7.0 0.00 0.00 0.00 49 1017.2
20260904171022 93 194 1.0 7.0 0.00 0.00 0.00 49 1017.4
20260904170517 93 195 3.0 8.0 0.00 0.00 0.00 50 1017.4
20260904170013 93 77 1.0 4.0 0.00 0.00 0.00 51 1017.2
20260904165511 92 126 1.0 4.0 0.00 0.00 0.00 52 1017.2
20260904165011 91 198 3.0 8.0 0.00 0.00 0.00 52 1017.1
20260904164506 91 153 3.0 5.0 0.00 0.00 0.00 53 1017.2
20260904164002 92 152 3.0 7.0 0.00 0.00 0.00 51 1017.2
20260904163502 91 154 1.0 7.0 0.00 0.00 0.00 55 1017.2
20260904163001 91 149 6.0 8.0 0.00 0.00 0.00 52 1017.1
20260904162457 90 204 3.0 9.0 0.00 0.00 0.00 54 1017.0
20260904161952 90 225 3.0 7.0 0.00 0.00 0.00 55 1017.0
20260904161447 90 152 5.0 10.0 0.00 0.00 0.00 55 1017.1
20260904160943 90 152 3.0 11.0 0.00 0.00 0.00 54 1017.2
20260904160437 89 179 0.0 7.0 0.00 0.00 0.00 56 1017.0
20260904155932 90 155 1.0 7.0 0.00 0.00 0.00 56 1017.0
20260904155427 89 165 4.0 7.0 0.00 0.00 0.00 55 1017.0
20260904154926 89 151 3.0 10.0 0.00 0.00 0.00 56 1017.0
20260904154420 89 172 3.0 8.0 0.00 0.00 0.00 56 1016.9
20260904153915 89 159 5.0 12.0 0.00 0.00 0.00 57 1016.9
20260904153411 89 216 3.0 7.0 0.00 0.00 0.00 57 1016.9
20260904152907 89 195 2.0 9.0 0.00 0.00 0.00 57 1016.7
20260904152403 89 186 4.0 6.0 0.00 0.00 0.00 56 1016.7
20260904151902 89 160 5.0 9.0 0.00 0.00 0.00 56 1016.9
20260904151401 89 136 2.0 8.0 0.00 0.00 0.00 57 1016.8
20260904150857 89 157 3.0 8.0 0.00 0.00 0.00 57 1016.9
20260904150352 89 204 1.0 5.0 0.00 0.00 0.00 57 1016.7
20260904145850 89 180 2.0 4.0 0.00 0.00 0.00 57 1016.8
20260904145346 88 192 2.0 7.0 0.00 0.00 0.00 59 1016.6